STARLINK-1404, 45686

Orbit data source: Space-Track

STARLINK-1404, 45686 is a payload satellite owned by SpaceX/Seattle (US) in LEO that was launched on Thu, 04 Jun 2020 UTC via an FALCON 9 launch vehicle from the Air Force Eastern Test Range (AFETR). Payload-class satellites include a variety of spacecraft equipped with specific instruments for various scientific and technological missions. These include communications satellites like Starlink; space stations such as the ISS; scientific satellites like the Hubble; Earth observation satellites from companies like Planet Labs, Umbra, and HawkEye 360; GPS; miniature CubeSats for education and research; and military/defense satellites.

Loading next visibility...
Identifier
45686, 2020-035AF
Orbit
LEO
Country
Flag of USUS
Related business
Manufacturer
SpaceX/Seattle
Mission
Operational Commercial Communications
Bus & Motor
STARLINK, Unknown motor
Mass
260 kg wet, ~248 kg dry
Launch date (UTC)
2020-06-04 (5 years ago)
Launch vehicle
FALCON 9
Launch site
Air Force Eastern Test Range (AFETR)
Object type
Payload
Rocket body
Debris
Shape & HBR
Box + 1 Pan, 10.1 m
Radar Cross Section
13.562 m², Large (>1 m²)

Expand to show TLE details & history
Last TLE update: 8 hours ago

TLE from 8 hours ago
0 STARLINK-1404
1 45686U 20035AF  25310.86086557  .00015433  00000-0  10514-2 0  9994
2 45686  53.0549 248.0195 0001641 100.5374 259.5800 15.06446561300367
Epoch: 2025-11-06T20:39Z
TLE epoch observation values (Epoch: 2025-11-06T20:39:38.785Z)
Latitude
-0°
Longitude
-108.20522°
Altitude
548.154 km
Speed
7.589 km/s
True Right ascension
16h 32m 04s
True Declination
0° 00' 00"
Sunlit
Object was in daylight at epoch
Visualization orbit readout
Latitude
Unknown
Longitude
Unknown
Altitude
Unknown
Speed
Unknown
Apparent Right ascension
Unknown
Apparent Declination
Unknown
Sunlit
N/A
Visualization observer readout
Local Sidereal Time
01:04:31
Azimuth
Unknown
Elevation
Unknown
Doppler factor
Unknown
Orbital elements
Apogee altitude
548.476 km
Perigee altitude
546.203 km
Semi-major axis
6,925.477 km
Eccentricity
0.00016
Inclination
53.0549°
RAAN
248.0195°
Arg. of periapsis
100.5374°
True anomaly
259.56151°
Mean anomaly
259.58°
Eccentric anomaly
259.57075°
Mean motion
3.7659 °/min
Orbital period
95.59 mins
BSTAR
0.0010514
Loading maneuver chart data...
Computing Atmospheric mass density...
Loading historical data...
Loading historical data...
Loading historical data...
Loading historical data...
Loading historical data...
Loading historical data...
Loading historical data...

Documentation

Showing up to 5 results
|